ティヒー彗星

196P/Tichy (2022)

English version
Home page
Updated on March 5, 2023

---------------------------------------------------------------------

・ プロフィール

・ 写真集

・ 軌道要素

Epoch 2022 Aug. 9.0 TT = JDT 2459800.5
T 2022 Oct. 29.34848 TT                                 Rudenko
q   2.1752677            (2000.0)            P               Q
n   0.13268790     Peri.   12.05650     +0.81208241     -0.56770757
a   3.8069909      Node    24.11178     +0.50416931     +0.56607821
e   0.4286123      Incl.   19.29976     +0.29382897     +0.59771530
P   7.43
From 252 observations 2000 Sept. 24-2022 Sept. 4, mean residual 0".7.

・ 光度変化

        m1 = 12.5 + 5 logΔ + 15.0 log r

---------------------------------------------------------------------

軌道要素はM.P.E.C. 2022-R139に掲載されたものです。
光度グラフはComet for Windowsで作成したものです。

---------------------------------------------------------------------

Copyright(C) Seiichi Yoshida (comet@aerith.net). All rights reserved.